Buffalo, MN

1:47 PM CST on February 24, 2017 (GMT -0600)
Buffalo

Weather History for KCFE - October, 2012

Change the Weather History Date:

Friday, October 5, 2012

  Actual Average (KMIC) Record (KMIC)
Temperature  
Mean Temperature 38 °F -  
Max Temperature 43 °F 62 °F 88 °F (2011)
Min Temperature 32 °F 39 °F 30 °F (2004)
Degree Days  
Heating Degree Days 28    
Moisture  
Dew Point 28 °F    
Average Humidity 65    
Maximum Humidity 83    
Minimum Humidity 51    
Precipitation  
Precipitation 0.00 in - - ()
Sea Level Pressure  
Sea Level Pressure 30.15 in    
Wind  
Wind Speed 16 mph (West)    
Max Wind Speed 23 mph    
Max Gust Speed 36 mph    
Visibility 10 miles    
Events      
Averages and records for this station are not official NWS values.
T = Trace of Precipitation, MM = Missing Value Source: NWS Daily Summary

Daily Weather History Graph

Daily Weather History Graph

Search for Another Location

Airport or City:

Trip Planner

Search our weather history database for the weather conditions in past years. The results will help you decide how hot, cold, wet, or windy it might be!

Date:

Astronomy

Oct. 05, 2012 Rise Set
Actual Time 7:19 AM CDT 6:47 PM CDT
Civil Twilight 6:49 AM CDT 7:16 PM CDT
Nautical Twilight 6:15 AM CDT 7:50 PM CDT
Astronomical Twilight 5:41 AM CDT 8:25 PM CDT
Moon 9:58 PM CDT (10/5) 12:40 PM CDT (10/5)
Length of Visible Light 12h 26m
Length of Day
11h 28m
Waning Gibbous, 74% of the Moon is Illuminated
Oct 5
Waning Gibbous
Oct 8
Last Quarter
Oct 15
New
Oct 21
First Quarter
Oct 29
Full

Hourly Weather History & Observations

Time (CDT) Temp. Windchill Dew Point Humidity Pressure Visibility Wind Dir Wind Speed Gust Speed Precip Events Conditions
12:14 AM 41.7 °F 33.1 °F 30.9 °F 66% 30.15 in 10.0 mi West 18.4 mph 23.0 mph N/A   Overcast
12:33 AM 41.5 °F 33.8 °F 30.7 °F 65% 30.15 in 10.0 mi West 15.0 mph 24.2 mph N/A   Overcast
12:53 AM 41.4 °F 31.9 °F 30.6 °F 65% 30.15 in 10.0 mi West 21.9 mph 35.7 mph N/A   Overcast
1:14 AM 41.0 °F 31.1 °F 29.1 °F 63% 30.16 in 10.0 mi West 23.0 mph 33.4 mph N/A   Overcast
1:33 AM 41.0 °F 31.6 °F 28.0 °F 60% 30.16 in 10.0 mi West 20.7 mph 31.1 mph N/A   Overcast
1:53 AM 41.0 °F 32.5 °F 28.4 °F 61% 30.16 in 10.0 mi West 17.3 mph 26.5 mph N/A   Overcast
2:13 AM 40.8 °F 32.3 °F 28.4 °F 61% 30.16 in 10.0 mi WNW 17.3 mph 27.6 mph N/A   Overcast
2:33 AM 40.3 °F 31.6 °F 29.1 °F 64% 30.15 in 10.0 mi West 17.3 mph 24.2 mph N/A   Overcast
2:53 AM 39.4 °F 30.7 °F 29.1 °F 67% 30.15 in 10.0 mi West 16.1 mph 21.9 mph N/A   Scattered Clouds
3:13 AM 38.7 °F 29.8 °F 28.2 °F 66% 30.15 in 10.0 mi West 16.1 mph 21.9 mph N/A   Clear
3:33 AM 37.6 °F 30.5 °F 28.2 °F 69% 30.15 in 10.0 mi West 10.4 mph 17.3 mph N/A   Clear
3:53 AM 37.4 °F 29.3 °F 28.4 °F 70% 30.15 in 10.0 mi West 12.7 mph 18.4 mph N/A   Clear
4:14 AM 37.4 °F 29.8 °F 28.4 °F 70% 30.15 in 10.0 mi West 11.5 mph 18.4 mph N/A   Clear
4:33 AM 37.4 °F 29.8 °F 28.9 °F 71% 30.15 in 10.0 mi West 11.5 mph 18.4 mph N/A   Clear
4:53 AM 36.3 °F 28.0 °F 28.9 °F 75% 30.14 in 10.0 mi West 12.7 mph 18.4 mph N/A   Clear
5:13 AM 35.8 °F 27.8 °F 28.4 °F 75% 30.14 in 10.0 mi WSW 11.5 mph 20.7 mph N/A   Clear
5:33 AM 35.4 °F 27.3 °F 28.8 °F 77% 30.14 in 10.0 mi West 11.5 mph 20.7 mph N/A   Clear
5:54 AM 34.7 °F 25.9 °F 28.4 °F 78% 30.14 in 10.0 mi West 12.7 mph 18.4 mph N/A   Clear
6:13 AM 34.3 °F 24.6 °F 28.4 °F 79% 30.13 in 10.0 mi West 15.0 mph 20.7 mph N/A   Clear
6:33 AM 33.8 °F 24.3 °F 28.2 °F 80% 30.13 in 10.0 mi West 13.8 mph 19.6 mph N/A   Clear
6:54 AM 33.8 °F 24.8 °F 28.4 °F 81% 30.13 in 10.0 mi West 12.7 mph 17.3 mph N/A   Clear
7:13 AM 33.3 °F 24.1 °F 28.4 °F 82% 30.14 in 10.0 mi West 12.7 mph 16.1 mph N/A   Clear
7:33 AM 32.9 °F 24.7 °F 28.0 °F 82% 30.14 in 10.0 mi West 10.4 mph 19.6 mph N/A   Clear
7:54 AM 32.9 °F 23.2 °F 28.2 °F 83% 30.15 in 10.0 mi WSW 13.8 mph 17.3 mph N/A   Clear
8:13 AM 33.4 °F 25.9 °F 28.4 °F 82% 30.15 in 10.0 mi WSW 9.2 mph 18.4 mph N/A   Clear
8:33 AM 33.8 °F 25.3 °F 28.2 °F 80% 30.15 in 10.0 mi WSW 11.5 mph 16.1 mph N/A   Scattered Clouds
8:53 AM 34.0 °F 28.0 °F 28.4 °F 80% 30.16 in 10.0 mi WSW 6.9 mph - N/A   Scattered Clouds
9:13 AM 34.2 °F 24.4 °F 27.7 °F 77% 30.16 in 10.0 mi West 15.0 mph 21.9 mph N/A   Mostly Cloudy
9:34 AM 35.4 °F 26.4 °F 28.2 °F 75% 30.16 in 10.0 mi WSW 13.8 mph 20.7 mph N/A   Mostly Cloudy
9:53 AM 36.5 °F 26.3 °F 27.9 °F 71% 30.16 in 10.0 mi West 18.4 mph 25.3 mph N/A   Scattered Clouds
10:13 AM 37.4 °F 28.2 °F 28.0 °F 69% 30.16 in 10.0 mi West 16.1 mph 21.9 mph N/A   Scattered Clouds
10:34 AM 38.3 °F 28.7 °F 28.2 °F 67% 30.16 in 10.0 mi West 18.4 mph - N/A   Mostly Cloudy
10:53 AM 38.5 °F 29.9 °F 27.5 °F 65% 30.16 in 10.0 mi West 15.0 mph 23.0 mph N/A   Mostly Cloudy
11:34 AM 40.6 °F 31.7 °F 27.5 °F 59% 30.14 in 10.0 mi West 18.4 mph 23.0 mph N/A   Scattered Clouds
11:53 AM 41.0 °F 33.9 °F 27.1 °F 58% 30.14 in 10.0 mi West 12.7 mph 25.3 mph N/A   Scattered Clouds
12:13 PM 41.4 °F 32.1 °F 26.4 °F 55% 30.14 in 10.0 mi West 20.7 mph 26.5 mph N/A   Scattered Clouds
12:33 PM 42.6 °F 33.5 °F 27.1 °F 54% 30.13 in 10.0 mi West 21.9 mph 25.3 mph N/A   Mostly Cloudy
12:53 PM 43.2 °F 34.7 °F 26.2 °F 51% 30.14 in 10.0 mi West 19.6 mph 31.1 mph N/A   Mostly Cloudy
1:33 PM 43.0 °F 34.5 °F 26.4 °F 52% 30.14 in 10.0 mi West 19.6 mph 26.5 mph N/A   Overcast
1:53 PM 43.7 °F 36.6 °F 27.1 °F 52% 30.13 in 10.0 mi West 15.0 mph 27.6 mph N/A   Overcast
2:14 PM 43.0 °F 35.4 °F 26.2 °F 52% 30.13 in 10.0 mi West 16.1 mph 29.9 mph N/A   Overcast
2:33 PM 43.2 °F 34.2 °F 26.6 °F 52% 30.13 in 10.0 mi West 21.9 mph 28.8 mph N/A   Overcast
2:53 PM 42.6 °F 33.8 °F 25.7 °F 51% 30.13 in 10.0 mi West 20.7 mph 26.5 mph N/A   Overcast
3:14 PM 42.6 °F 33.5 °F 26.4 °F 53% 30.14 in 10.0 mi West 21.9 mph 28.8 mph N/A   Overcast
3:33 PM 42.3 °F 32.8 °F 26.6 °F 54% 30.13 in 10.0 mi West 23.0 mph 28.8 mph N/A   Overcast
3:53 PM 41.7 °F 32.6 °F 26.2 °F 54% 30.14 in 10.0 mi West 20.7 mph 27.6 mph N/A   Overcast
4:14 PM 41.4 °F 33.6 °F 26.2 °F 55% 30.14 in 10.0 mi West 15.0 mph 23.0 mph N/A   Overcast
4:33 PM 41.2 °F 32.4 °F 26.8 °F 57% 30.14 in 10.0 mi West 18.4 mph 28.8 mph N/A   Overcast
4:53 PM 41.0 °F 31.6 °F 26.8 °F 57% 30.14 in 10.0 mi West 20.7 mph 25.3 mph N/A   Overcast
5:14 PM 41.0 °F 32.8 °F 26.8 °F 57% 30.14 in 10.0 mi West 16.1 mph 21.9 mph N/A   Overcast
5:33 PM 41.0 °F 32.2 °F 26.4 °F 56% 30.14 in 10.0 mi West 18.4 mph 25.3 mph N/A   Overcast
5:53 PM 41.0 °F 33.9 °F 26.4 °F 56% 30.14 in 10.0 mi WNW 12.7 mph 25.3 mph N/A   Overcast
6:14 PM 40.8 °F 32.6 °F 26.8 °F 57% 30.14 in 10.0 mi West 16.1 mph 25.3 mph N/A   Overcast
6:33 PM 40.6 °F 32.0 °F 27.5 °F 59% 30.14 in 10.0 mi West 17.3 mph 24.2 mph N/A   Overcast
6:53 PM 40.1 °F 32.0 °F 26.8 °F 59% 30.14 in 10.0 mi WNW 15.0 mph 26.5 mph N/A   Overcast
7:13 PM 40.1 °F 32.0 °F 27.1 °F 60% 30.15 in 10.0 mi West 15.0 mph 26.5 mph N/A   Overcast
7:33 PM 40.1 °F 32.4 °F 27.5 °F 61% 30.15 in 10.0 mi West 13.8 mph 24.2 mph N/A   Overcast
7:53 PM 39.9 °F 31.4 °F 27.7 °F 62% 30.16 in 10.0 mi West 16.1 mph 20.7 mph N/A   Overcast
8:13 PM 40.1 °F 32.7 °F 28.2 °F 63% 30.16 in 10.0 mi West 12.7 mph 18.4 mph N/A   Overcast
8:33 PM 39.7 °F 32.7 °F 27.5 °F 62% 30.16 in 10.0 mi WNW 11.5 mph 25.3 mph N/A   Overcast
8:53 PM 39.2 °F 29.8 °F 27.3 °F 62% 30.17 in 10.0 mi WNW 18.4 mph 25.3 mph N/A   Overcast
9:13 PM 39.2 °F 30.2 °F 27.5 °F 63% 30.17 in 10.0 mi WNW 17.3 mph 24.2 mph N/A   Overcast
9:33 PM 38.7 °F 31.8 °F 28.4 °F 67% 30.17 in 10.0 mi West 10.4 mph - N/A   Overcast
9:53 PM 38.3 °F 30.1 °F 28.4 °F 68% 30.17 in 10.0 mi WNW 13.8 mph 19.6 mph N/A   Overcast
10:33 PM 37.4 °F 29.8 °F 27.1 °F 66% 30.17 in 10.0 mi WNW 11.5 mph 17.3 mph N/A   Mostly Cloudy
10:53 PM 37.2 °F 29.6 °F 27.7 °F 68% 30.17 in 10.0 mi WNW 11.5 mph 19.6 mph N/A   Mostly Cloudy
11:14 PM 37.0 °F 28.9 °F 27.5 °F 68% 30.17 in 10.0 mi WNW 12.7 mph 20.7 mph N/A   Overcast
11:33 PM 36.7 °F 28.0 °F 27.5 °F 69% 30.17 in 10.0 mi West 13.8 mph 17.3 mph N/A   Overcast
11:53 PM 36.5 °F 29.2 °F 27.1 °F 69% 30.17 in 10.0 mi WNW 10.4 mph 19.6 mph N/A   Overcast